HB9BTL-13 Weather Reports


Display with metric or nautical units.
time (UTC)temp
F
wind
direction
speed
MPH
gust
MPH
rain 1hr
in
rain 24hr
in
rain mn
in
humidity
%
barometer
mb
20260505233948 56 0.0 0.0 0.00 0.00 0.00 10 1009.4
20260505232442 56 0.0 0.0 0.00 0.00 0.00 10 1009.7
20260505230940 56 0.0 0.0 0.00 0.00 0.00 10 1009.7
20260505225433 56 0.0 0.0 0.00 0.00 0.00 10 1009.8
20260505223927 56 0.0 0.0 0.00 0.00 0.00 10 1009.8
20260505222421 57 0.0 0.0 0.00 0.00 0.00 10 1009.8
20260505215414 56 0.0 0.0 0.00 0.00 0.00 10 1010.0
20260505213905 56 0.0 0.0 0.00 0.00 0.00 10 1010.0
20260505210854 57 0.0 0.0 0.00 0.00 0.00 10 1010.1
20260505205349 57 0.0 0.0 0.00 0.00 0.00 10 1010.2
20260505200835 57 0.0 0.0 0.00 0.00 0.00 10 1009.9
20260505195327 57 0.0 0.0 0.00 0.00 0.00 10 1009.8
20260505193826 57 0.0 0.0 0.00 0.00 0.00 10 1009.8
20260505190813 58 0.0 0.0 0.00 0.00 0.00 10 1009.4
20260505185305 58 0.0 0.0 0.00 0.00 0.00 10 1009.2
20260505183806 59 0.0 0.0 0.00 0.00 0.00 10 1009.1
20260505180751 59 0.0 0.0 0.00 0.00 0.00 10 1009.1
20260505173741 59 0.0 0.0 0.00 0.00 0.00 10 1009.4
20260505172233 59 0.0 0.0 0.00 0.00 0.00 10 1009.2
20260505165228 59 0.0 0.0 0.00 0.00 0.00 10 1009.0
20260505163717 59 0.0 0.0 0.00 0.00 0.00 10 1008.8
20260505162212 59 0.0 0.0 0.00 0.00 0.00 10 1009.3
20260505152155 60 0.0 0.0 0.00 0.00 0.00 76 1008.9
20260505140626 65 0.0 0.0 0.00 0.00 0.00 90 1008.3
20260505123551 63 0.0 0.0 0.00 0.00 0.00 90 1008.7
20260505120541 62 0.0 0.0 0.00 0.00 0.00 94 1008.9
20260505112025 61 0.0 0.0 0.00 0.00 0.00 95 1009.0
20260505110522 60 0.0 0.0 0.00 0.00 0.00 96 1009.2
20260505100457 60 0.0 0.0 0.00 0.00 0.00 93 1009.4
20260505094952 60 0.0 0.0 0.00 0.00 0.00 91 1009.4
20260505093446 59 0.0 0.0 0.00 0.00 0.00 93 1009.3
20260505084930 59 0.0 0.0 0.00 0.00 0.00 95 1009.5
20260505080414 57 0.0 0.0 0.00 0.00 0.00 97 1009.9
20260505074910 57 0.0 0.0 0.00 0.00 0.00 98 1010.1
20260505071858 57 0.0 0.0 0.00 0.00 0.00 97 1010.4
20260505070353 57 0.0 0.0 0.00 0.00 0.00 97 1010.5
20260505064847 56 0.0 0.0 0.00 0.00 0.00 99 1010.5
20260505063346 56 0.0 0.0 0.00 0.00 0.00 99 1010.6
20260505060331 56 0.0 0.0 0.00 0.00 0.00 98 1010.8
20260505053320 55 0.0 0.0 0.00 0.00 0.00 97 1010.6
20260505051816 55 0.0 0.0 0.00 0.00 0.00 96 1010.6
20260505041753 55 0.0 0.0 0.00 0.00 0.00 96 1010.7
20260505040248 55 0.0 0.0 0.00 0.00 0.00 95 1010.8
20260505034743 54 0.0 0.0 0.00 0.00 0.00 98 1010.5
20260505033242 54 0.0 0.0 0.00 0.00 0.00 98 1010.7
20260505030227 54 0.0 0.0 0.00 0.00 0.00 98 1010.9
20260505024721 54 0.0 0.0 0.00 0.00 0.00 99 1011.0
20260505023216 54 0.0 0.0 0.00 0.00 0.00 99 1011.1
20260505021710 54 0.0 0.0 0.00 0.00 0.00 97 1011.4
20260505020205 54 0.0 0.0 0.00 0.00 0.00 97 1011.3
20260505014659 55 0.0 0.0 0.00 0.00 0.00 95 1011.4
20260505013154 55 0.0 0.0 0.00 0.00 0.00 94 1011.5
20260505011649 54 0.0 0.0 0.00 0.00 0.00 97 1011.6
20260505010143 55 0.0 0.0 0.00 0.00 0.00 96 1011.8
20260505004638 55 0.0 0.0 0.00 0.00 0.00 97 1012.0
20260505003132 56 0.0 0.0 0.00 0.00 0.00 93 1012.2
20260505001627 56 0.0 0.0 0.00 0.00 0.00 94 1012.4
20260505000121 56 0.0 0.0 0.00 0.00 0.00 93 1012.5